SCP
0 0 -0 -0 -0 -0 0 -0 -0 -0 -0 -0 -0 -0 -0 -0 -0 -0 -0 -0 -0 -0 -0 -0 -0 -0 -0 -0 -0 -0 -0 -0 -0 -0 -0 -0 -0 -0 -0 -0 -0 0 -0
0 0 -0 -0 -0 0 0 -0 -0 -0 -0 -0 -0 -0 -0 -0 -0 -0 -0 -0 -0 -0 -0 -0 -0 -0 -0 -0 -0 -0 -0 -0 -0 0 0 -0 -0 -0 -0 -0 -0 0 -0
0 0 0 -0 -0 0 0 -0 -0 -0 -0 -0 -0 -0 -0 -0 -0 -0 -0 -0 -0 -0 -0 -0 -0 -0 -0 -0 -0 -0 -0 -0 -0 -0 -0 0 0 -0 -0 -0 -0 -0 -0
0 0 0 -0 0 0 -0 0 -0 -0 -0 -0 -0 -0 -0 -0 -0 -0 -0 -0 -0 -0 -0 -0 -0 -0 -0 -0 -0 -0 -0 -0 -0 -0 0 0 0 -0 -0 -0 -0 -0 -0
0 0 0 -0 -0 -0 -0 -0 -0 -0 -0 -0 -0 -0 -0 -0 -0 -0 -0 -0 -0 -0 -0 -0 -0 -0 -0 -0 -0 -0 -0 -0 -0 -0 0 0 0 -0 -0 -0 -0 -0 -0
0 0 0 -0 -0 -0 -0 -0 -0 -0 -0 -0 -0 -0 -0 -0 -0 -0 -0 -0 -0 -0 -0 -0 -0 -0 -0 -0 -0 -0 -0 -0 -0 0 0 0 0 -0 -0 -0 -0 -0 -0
0 0 0 0 -0 0 -0 -0 0 -0 -0 -0 -0 -0 -0 -0 -0 -0 -0 -0 -0 -0 -0 -0 -0 -0 -0 -0 -0 -0 -0 -0 0 0 0 0 0 -0 -0 -0 -0 -0 -0
0 0 0 0 0 0 0 -0 -0 -0 -0 -0 -0 -0 -0 -0 -0 -0 -0 -0 -0 -0 -0 -0 -0 -0 -0 -0 -0 -0 -0 -0 0 0 0 0 -0 -0 -0 -0 -0 -0 -0
0 0 0 0 0 0 0 0 0 -0 -0 -0 -0 -0 -0 -0 -0 -0 -0 -0 -0 -0 -0 -0 -0 -0 -0 -0 -0 -0 -0 -0 0 0 0 0 -0 -0 -0 -0 -0 -0 0
0 0 0 0 0 0 0 0 0 0 0 0 0 0 0 0 0 0 0 0 0 0 0 0 0 0 0 0 0 0 0 0 0 0 0 0 0 0 0 0 0 0 0
0 0 0 0 0 0 0 0 0 0 0 0 0 0 0 0 0 0 0 0 0 0 0 0 0 0 0 0 0 0 0 0 0 0 0 0 0 0 0 0 0 0 0
0 0 0 0 0 0 0 0 0 0 0 0 0 0 0 0 0 0 0 0 0 0 0 0 0 0 0 0 0 0 0 0 0 0 0 0 0 0 0 0 0 0 0
0 0 0 0 0 0 0 0 0 0 0 0 0 0 0 0 0 0 0 0 0 0 0 0 0 0 0 0 0 0 0 0 0 0 0 0 0 0 0 0 0 0 0
0 0 0 0 0 0 0 0 0 0 0 0 0 0 0 0 0 0 0 0 0 0 0 0 0 0 0 0 0 0 0 0 0 0 0 0 0 0 0 0 0 0 0
0 0 0 0 0 0 0 0 0 0 0 0 0 0 0 0 0 0 0 0 0 0 0 0 0 0 0 0 0 0 0 0 0 0 0 0 0 0 0 0 0 0 0
0 0 0 0 0 0 0 0 0 0 0 0 0 0 0 0 0 0 0 0 0 0 0 0 0 0 0 0 0 0 0 0 0 0 0 0 0 0 0 0 0 0 0
0 0 0 0 0 0 0 0 0 0 0 0 0 0 0 0 0 0 0 0 0 0 0 0 0 0 0 0 0 0 0 0 0 0 0 0 0 0 0 0 0 0 0
-0 -0 0 0 0 0 0 0 0 0 0 0 0 0 0 0 0 0 0 0 0 0 0 0 0 0 0 0 0 0 0 0 0 0 0 0 0 0 0 0 0 0 0
-0 -0 0 0 0 0 0 0 0 0 0 0 0 0 0 0 0 0 0 0 0 0 0 0 0 0 0 0 0 0 0 0 0 0 0 0 0 0 0 0 0 0 0
0 0 0 0 0 0 0 0 0 0 0 0 0 0 0 0 0 0 0 0 0 0 0 0 0 0 0 0 0 0 0 0 0 0 0 0 0 0 0 0 0 0 0
0 0 0 0 0 0 0 0 0 0 0 0 0 0 0 0 0 0 0 0 0 0 0 0 0 0 0 0 0 0 0 0 0 0 0 0 0 0 0 0 0 0 0
-0 0 0 0 0 0 0 0 0 0 0 0 0 0 0 0 0 0 0 0 0 0 0 0 0 0 0 0 0 0 0 0 0 0 0 0 0 0 0 0 0 0 0
-0 -0 -0 -0 0 0 0 0 0 0 0 0 0 0 0 0 0 0 0 0 0 0 0 0 0 0 0 0 0 0 0 0 0 0 0 0 0 0 0 0 0 0 0
-0 -0 -0 -0 -0 0 0 0 0 0 0 0 0 0 0 0 0 0 0 0 0 0 0 0 0 0 0 0 0 0 0 0 0 0 0 0 0 0 0 0 0 0 0
-0 0 0 0 0 0 0 0 0 0 0 0 0 0 0 0 0 0 0 0 0 0 0 0 0 0 0 0 0 0 0 0 0 0 0 0 0 0 0 0 0 0 0
0 0 0 0 0 0 0 0 0 0 0 0 0 0 0 0 0 0 0 0 0 0 0 0 0 0 0 0 0 0 0 0 0 0 0 0 0 0 0 0 0 0 0
Wind_Speed_500mb
20 17 17 15 15 23 20 19 24 24 22 21 20 20 22 23 22 21 19 16 18 18 22 18 18 18 22 24 26 25 27 36 38 37 41 43 40 40 37 36 30 24 21
30 26 22 15 13 25 19 14 20 19 23 25 25 25 25 26 24 25 23 19 19 20 21 19 20 22 17 21 23 24 26 34 42 40 31 36 34 34 34 38 36 35 33
30 41 27 19 18 26 20 12 15 16 23 23 23 22 20 22 18 20 19 24 23 18 12 20 24 19 19 22 22 23 26 34 37 27 28 32 22 28 27 30 32 34 36
35 51 36 38 29 24 18 20 21 25 26 23 20 20 17 16 14 12 12 12 11 7 15 21 21 24 24 22 23 24 29 35 24 22 19 14 27 35 28 26 27 29 29
31 49 61 64 53 33 29 29 26 26 23 20 16 16 14 11 8 4 4 3 7 11 18 20 21 22 22 22 23 25 23 21 17 21 17 21 38 33 34 32 31 30 31
29 45 62 67 60 43 36 31 20 16 20 21 17 14 10 6 5 6 7 9 9 12 13 15 17 20 20 20 16 16 12 13 12 19 19 25 23 23 22 31 23 23 28
23 38 50 63 61 52 36 24 18 13 11 13 7 6 7 9 9 9 8 7 7 10 12 13 15 15 15 13 10 9 7 5 8 19 26 23 21 17 21 30 23 15 25
15 22 29 41 49 44 38 27 20 14 8 4 8 7 6 5 5 5 5 4 7 8 9 9 10 10 9 7 6 4 6 7 8 14 17 22 22 23 32 23 18 19 20
15 16 19 24 29 33 27 25 17 9 7 6 5 4 3 2 5 7 7 7 7 7 8 7 5 3 6 6 5 2 4 8 7 5 5 6 19 21 25 21 21 23 24
11 17 19 15 16 16 19 16 13 11 12 12 8 5 4 4 7 5 5 6 5 5 5 6 5 5 6 5 6 8 9 8 7 2 4 8 7 15 19 21 22 24 26
10 13 14 18 16 18 20 18 16 13 12 12 10 8 6 1 1 2 1 3 4 6 5 6 5 7 9 9 9 13 10 4 3 7 10 9 5 11 16 19 22 23 24
10 16 15 19 22 21 22 18 19 18 18 15 18 16 10 5 2 0 2 3 3 3 2 1 2 4 7 13 10 11 4 5 9 11 16 17 19 22 24 23 23 24 26
12 18 17 16 19 22 23 24 22 20 24 21 21 20 13 9 5 6 3 2 2 1 0 2 4 5 8 11 12 7 3 9 13 15 19 19 22 24 25 27 28 31 32
20 18 21 17 21 21 21 22 21 25 22 21 19 17 12 10 9 7 5 4 4 5 6 8 8 9 11 13 11 8 4 12 13 16 19 21 22 23 24 26 28 29 31
23 23 22 21 20 20 20 21 24 19 19 18 18 11 13 11 8 6 6 6 7 10 11 11 10 10 9 11 11 10 9 7 10 13 16 20 22 22 23 24 26 29 33
21 25 24 23 22 23 22 19 18 18 18 16 14 14 11 9 9 9 9 9 9 10 12 12 11 11 12 11 11 12 12 11 10 12 14 17 19 24 28 30 32 34 36
26 25 24 26 25 23 22 21 20 21 20 18 15 12 13 11 13 14 14 15 13 13 12 12 12 12 12 13 12 13 13 12 11 10 13 17 21 23 26 30 32 37 40
33 32 32 32 30 28 27 26 24 22 22 20 18 16 14 13 14 16 15 15 15 15 15 13 13 12 12 13 14 15 15 13 9 6 9 15 20 23 26 30 34 39 41
42 42 42 41 39 36 34 31 30 29 28 27 27 26 27 27 26 22 20 19 20 18 17 17 15 15 15 14 14 15 15 11 3 0 3 11 19 23 27 30 35 41 44
43 45 45 42 41 40 41 40 39 37 37 37 34 33 31 28 22 19 19 18 19 18 17 15 14 12 12 13 15 14 14 17 13 10 8 12 18 20 26 30 36 41 44
47 45 43 44 44 46 47 47 46 44 42 39 36 34 30 27 27 27 26 25 21 18 16 15 14 12 11 14 14 9 6 8 18 18 19 15 24 23 28 32 36 41 45
49 49 50 51 52 52 52 48 45 42 42 39 39 40 38 33 30 30 26 23 22 21 21 20 17 16 13 12 10 10 5 7 16 16 26 24 28 27 31 31 35 41 45
53 54 54 54 55 54 51 50 49 49 51 51 52 48 42 39 38 32 30 30 28 26 24 21 20 18 17 13 11 10 10 10 11 19 19 25 31 35 42 43 42 47 46
51 50 54 56 57 55 54 56 59 62 60 58 53 50 48 47 43 40 39 36 33 30 27 24 21 19 18 17 14 12 12 13 12 11 18 26 33 37 43 46 51 55 54
54 55 56 58 62 64 66 67 68 68 65 58 56 57 57 55 53 50 48 44 41 36 32 28 26 23 22 21 19 17 16 19 19 21 27 28 35 41 41 43 50 54 57
63 63 64 66 69 70 74 74 77 78 72 66 62 66 66 65 62 60 57 52 47 43 40 34 32 31 28 25 22 22 21 21 20 24 30 43 46 46 46 47 48 53 52
Wind_Direction_500mb
77 132 170 133 113 92 99 100 98 105 105 105 104 105 102 99 97 94 89 83 84 74 59 44 50 54 66 70 72 79 71 68 69 59 49 31 44 49 52 52 57 60 59
74 98 151 117 120 115 118 115 98 106 101 99 100 101 101 99 100 98 88 69 55 49 47 58 63 62 65 68 66 67 69 75 75 58 49 33 24 43 47 47 46 49 49
84 84 130 137 125 124 126 125 120 119 107 106 106 107 104 103 107 99 98 79 62 58 33 45 60 66 65 65 65 68 72 74 74 70 66 56 25 32 47 48 47 50 47
93 89 114 97 126 135 135 135 140 131 121 122 123 115 138 135 139 143 134 110 90 27 24 44 67 53 62 69 69 74 82 93 84 80 79 70 38 49 57 56 50 54 53
103 101 111 98 79 129 130 140 153 157 145 134 153 162 156 140 157 177 164 18 355 12 42 51 54 59 62 72 80 93 111 117 116 96 111 77 61 51 55 63 59 60 59
118 118 120 118 104 127 136 146 153 176 176 192 197 162 164 155 81 64 67 66 46 37 42 47 52 61 67 74 83 97 112 102 112 100 103 78 69 55 47 54 63 63 57
138 135 130 136 138 140 170 175 177 195 220 186 152 124 108 100 90 85 79 64 44 37 40 38 44 60 71 78 85 87 83 68 101 97 90 75 51 60 56 51 45 34 45
163 149 142 142 149 160 167 185 186 213 246 140 113 103 86 72 53 31 40 36 24 20 20 27 44 56 72 87 93 76 41 44 78 98 93 84 62 59 54 40 13 4 5
182 169 162 161 164 172 170 197 203 199 211 178 149 144 118 356 340 339 339 352 2 2 2 2 18 68 102 114 113 77 20 13 342 71 75 59 59 34 22 353 346 345 344
179 192 185 168 181 166 179 208 203 201 230 214 209 233 253 336 335 349 3 355 11 12 15 27 47 98 133 165 198 259 285 302 300 152 96 63 337 347 356 349 347 340 337
183 195 200 200 199 203 205 233 232 223 219 236 240 256 283 326 348 21 352 30 43 44 59 70 90 114 132 153 208 235 254 265 127 110 80 74 340 342 351 353 354 348 347
197 195 194 204 213 225 222 227 226 219 217 230 245 243 244 239 215 280 113 111 81 54 354 87 158 189 169 159 185 238 235 90 87 84 69 64 51 45 40 30 18 13 9
219 215 197 201 204 218 220 228 228 226 225 206 219 232 223 203 195 210 183 131 89 89 148 139 164 173 169 164 173 203 137 105 86 76 72 64 56 51 43 36 26 19 14
218 215 207 194 200 194 202 205 207 216 216 203 201 207 177 183 206 204 177 155 136 140 139 138 142 144 147 149 164 158 148 122 99 80 69 58 48 40 33 28 27 22 24
200 212 204 195 189 196 185 188 198 193 203 201 198 193 200 183 201 194 186 174 166 154 154 150 149 146 150 157 157 149 139 121 111 95 71 55 44 37 30 27 25 26 27
200 202 202 192 194 188 189 185 175 178 179 185 181 179 190 192 195 200 203 202 186 170 154 151 153 155 157 155 158 152 146 134 115 92 72 56 44 36 35 34 31 27 24
219 205 198 196 185 187 178 176 179 174 174 178 174 188 182 193 203 206 200 193 188 172 163 157 155 163 165 163 168 161 155 143 132 106 73 48 36 35 31 30 29 25 23
217 224 217 211 204 198 199 195 190 203 197 197 199 193 192 201 208 210 205 194 184 174 164 165 165 169 175 172 173 171 158 143 126 98 62 41 32 26 23 25 24 22 18
216 216 211 205 203 192 200 195 195 199 200 202 203 208 205 209 208 203 195 190 180 175 171 165 171 175 176 187 192 200 197 196 137 205 13 28 19 16 14 13 14 13 10
217 210 206 203 200 197 197 195 196 206 220 224 217 213 212 208 202 199 196 193 184 177 170 164 161 164 175 177 193 212 233 238 218 38 282 344 356 358 1 2 4 5 3
222 217 214 209 205 204 206 211 217 222 217 211 209 210 208 210 209 205 199 194 188 187 182 176 171 157 167 187 171 200 248 270 212 300 330 300 328 338 350 351 355 352 353
233 228 225 221 220 219 219 220 222 217 214 216 222 224 219 214 212 211 205 200 199 194 192 190 187 173 161 185 201 198 270 267 254 295 308 296 313 325 337 339 345 345 344
240 237 235 234 233 230 227 222 219 221 226 229 225 221 220 219 218 216 213 212 209 206 202 201 200 201 188 174 179 197 192 210 251 276 285 291 314 325 327 332 341 339 339
245 241 241 241 241 241 233 228 231 233 234 232 230 227 225 224 223 221 220 220 219 216 212 210 210 209 211 202 204 212 227 241 258 264 275 289 302 311 319 325 329 332 334
241 241 240 237 237 236 237 238 240 241 240 240 239 234 231 228 226 226 227 225 225 223 223 220 220 218 221 225 223 225 238 250 258 259 281 295 295 303 308 316 325 324 327
241 239 237 238 238 237 237 236 237 242 243 241 240 240 235 232 231 230 230 229 229 229 228 229 228 229 230 233 240 246 254 259 268 265 270 285 292 305 311 317 313 320 319
Wind_Speed_850mb
20 17 17 15 15 23 20 19 24 24 22 21 20 20 22 23 22 21 19 16 18 18 22 18 18 18 22 24 26 25 27 36 38 37 41 43 40 40 37 36 30 24 21
30 26 22 15 13 25 19 14 20 19 23 25 25 25 25 26 24 25 23 19 19 20 21 19 20 22 17 21 23 24 26 34 42 40 31 36 34 34 34 38 36 35 33
30 41 27 19 18 26 20 12 15 16 23 23 23 22 20 22 18 20 19 24 23 18 12 20 24 19 19 22 22 23 26 34 37 27 28 32 22 28 27 30 32 34 36
35 51 36 38 29 24 18 20 21 25 26 23 20 20 17 16 14 12 12 12 11 7 15 21 21 24 24 22 23 24 29 35 24 22 19 14 27 35 28 26 27 29 29
31 49 61 64 53 33 29 29 26 26 23 20 16 16 14 11 8 4 4 3 7 11 18 20 21 22 22 22 23 25 23 21 17 21 17 21 38 33 34 32 31 30 31
29 45 62 67 60 43 36 31 20 16 20 21 17 14 10 6 5 6 7 9 9 12 13 15 17 20 20 20 16 16 12 13 12 19 19 25 23 23 22 31 23 23 28
23 38 50 63 61 52 36 24 18 13 11 13 7 6 7 9 9 9 8 7 7 10 12 13 15 15 15 13 10 9 7 5 8 19 26 23 21 17 21 30 23 15 25
15 22 29 41 49 44 38 27 20 14 8 4 8 7 6 5 5 5 5 4 7 8 9 9 10 10 9 7 6 4 6 7 8 14 17 22 22 23 32 23 18 19 20
15 16 19 24 29 33 27 25 17 9 7 6 5 4 3 2 5 7 7 7 7 7 8 7 5 3 6 6 5 2 4 8 7 5 5 6 19 21 25 21 21 23 24
11 17 19 15 16 16 19 16 13 11 12 12 8 5 4 4 7 5 5 6 5 5 5 6 5 5 6 5 6 8 9 8 7 2 4 8 7 15 19 21 22 24 26
10 13 14 18 16 18 20 18 16 13 12 12 10 8 6 1 1 2 1 3 4 6 5 6 5 7 9 9 9 13 10 4 3 7 10 9 5 11 16 19 22 23 24
10 16 15 19 22 21 22 18 19 18 18 15 18 16 10 5 2 0 2 3 3 3 2 1 2 4 7 13 10 11 4 5 9 11 16 17 19 22 24 23 23 24 26
12 18 17 16 19 22 23 24 22 20 24 21 21 20 13 9 5 6 3 2 2 1 0 2 4 5 8 11 12 7 3 9 13 15 19 19 22 24 25 27 28 31 32
20 18 21 17 21 21 21 22 21 25 22 21 19 17 12 10 9 7 5 4 4 5 6 8 8 9 11 13 11 8 4 12 13 16 19 21 22 23 24 26 28 29 31
23 23 22 21 20 20 20 21 24 19 19 18 18 11 13 11 8 6 6 6 7 10 11 11 10 10 9 11 11 10 9 7 10 13 16 20 22 22 23 24 26 29 33
21 25 24 23 22 23 22 19 18 18 18 16 14 14 11 9 9 9 9 9 9 10 12 12 11 11 12 11 11 12 12 11 10 12 14 17 19 24 28 30 32 34 36
26 25 24 26 25 23 22 21 20 21 20 18 15 12 13 11 13 14 14 15 13 13 12 12 12 12 12 13 12 13 13 12 11 10 13 17 21 23 26 30 32 37 40
33 32 32 32 30 28 27 26 24 22 22 20 18 16 14 13 14 16 15 15 15 15 15 13 13 12 12 13 14 15 15 13 9 6 9 15 20 23 26 30 34 39 41
42 42 42 41 39 36 34 31 30 29 28 27 27 26 27 27 26 22 20 19 20 18 17 17 15 15 15 14 14 15 15 11 3 0 3 11 19 23 27 30 35 41 44
43 45 45 42 41 40 41 40 39 37 37 37 34 33 31 28 22 19 19 18 19 18 17 15 14 12 12 13 15 14 14 17 13 10 8 12 18 20 26 30 36 41 44
47 45 43 44 44 46 47 47 46 44 42 39 36 34 30 27 27 27 26 25 21 18 16 15 14 12 11 14 14 9 6 8 18 18 19 15 24 23 28 32 36 41 45
49 49 50 51 52 52 52 48 45 42 42 39 39 40 38 33 30 30 26 23 22 21 21 20 17 16 13 12 10 10 5 7 16 16 26 24 28 27 31 31 35 41 45
53 54 54 54 55 54 51 50 49 49 51 51 52 48 42 39 38 32 30 30 28 26 24 21 20 18 17 13 11 10 10 10 11 19 19 25 31 35 42 43 42 47 46
51 50 54 56 57 55 54 56 59 62 60 58 53 50 48 47 43 40 39 36 33 30 27 24 21 19 18 17 14 12 12 13 12 11 18 26 33 37 43 46 51 55 54
54 55 56 58 62 64 66 67 68 68 65 58 56 57 57 55 53 50 48 44 41 36 32 28 26 23 22 21 19 17 16 19 19 21 27 28 35 41 41 43 50 54 57
63 63 64 66 69 70 74 74 77 78 72 66 62 66 66 65 62 60 57 52 47 43 40 34 32 31 28 25 22 22 21 21 20 24 30 43 46 46 46 47 48 53 52
Wind_Direction_850mb
77 132 170 133 113 92 99 100 98 105 105 105 104 105 102 99 97 94 89 83 84 74 59 44 50 54 66 70 72 79 71 68 69 59 49 31 44 49 52 52 57 60 59
74 98 151 117 120 115 118 115 98 106 101 99 100 101 101 99 100 98 88 69 55 49 47 58 63 62 65 68 66 67 69 75 75 58 49 33 24 43 47 47 46 49 49
84 84 130 137 125 124 126 125 120 119 107 106 106 107 104 103 107 99 98 79 62 58 33 45 60 66 65 65 65 68 72 74 74 70 66 56 25 32 47 48 47 50 47
93 89 114 97 126 135 135 135 140 131 121 122 123 115 138 135 139 143 134 110 90 27 24 44 67 53 62 69 69 74 82 93 84 80 79 70 38 49 57 56 50 54 53
103 101 111 98 79 129 130 140 153 157 145 134 153 162 156 140 157 177 164 18 355 12 42 51 54 59 62 72 80 93 111 117 116 96 111 77 61 51 55 63 59 60 59
118 118 120 118 104 127 136 146 153 176 176 192 197 162 164 155 81 64 67 66 46 37 42 47 52 61 67 74 83 97 112 102 112 100 103 78 69 55 47 54 63 63 57
138 135 130 136 138 140 170 175 177 195 220 186 152 124 108 100 90 85 79 64 44 37 40 38 44 60 71 78 85 87 83 68 101 97 90 75 51 60 56 51 45 34 45
163 149 142 142 149 160 167 185 186 213 246 140 113 103 86 72 53 31 40 36 24 20 20 27 44 56 72 87 93 76 41 44 78 98 93 84 62 59 54 40 13 4 5
182 169 162 161 164 172 170 197 203 199 211 178 149 144 118 356 340 339 339 352 2 2 2 2 18 68 102 114 113 77 20 13 342 71 75 59 59 34 22 353 346 345 344
179 192 185 168 181 166 179 208 203 201 230 214 209 233 253 336 335 349 3 355 11 12 15 27 47 98 133 165 198 259 285 302 300 152 96 63 337 347 356 349 347 340 337
183 195 200 200 199 203 205 233 232 223 219 236 240 256 283 326 348 21 352 30 43 44 59 70 90 114 132 153 208 235 254 265 127 110 80 74 340 342 351 353 354 348 347
197 195 194 204 213 225 222 227 226 219 217 230 245 243 244 239 215 280 113 111 81 54 354 87 158 189 169 159 185 238 235 90 87 84 69 64 51 45 40 30 18 13 9
219 215 197 201 204 218 220 228 228 226 225 206 219 232 223 203 195 210 183 131 89 89 148 139 164 173 169 164 173 203 137 105 86 76 72 64 56 51 43 36 26 19 14
218 215 207 194 200 194 202 205 207 216 216 203 201 207 177 183 206 204 177 155 136 140 139 138 142 144 147 149 164 158 148 122 99 80 69 58 48 40 33 28 27 22 24
200 212 204 195 189 196 185 188 198 193 203 201 198 193 200 183 201 194 186 174 166 154 154 150 149 146 150 157 157 149 139 121 111 95 71 55 44 37 30 27 25 26 27
200 202 202 192 194 188 189 185 175 178 179 185 181 179 190 192 195 200 203 202 186 170 154 151 153 155 157 155 158 152 146 134 115 92 72 56 44 36 35 34 31 27 24
219 205 198 196 185 187 178 176 179 174 174 178 174 188 182 193 203 206 200 193 188 172 163 157 155 163 165 163 168 161 155 143 132 106 73 48 36 35 31 30 29 25 23
217 224 217 211 204 198 199 195 190 203 197 197 199 193 192 201 208 210 205 194 184 174 164 165 165 169 175 172 173 171 158 143 126 98 62 41 32 26 23 25 24 22 18
216 216 211 205 203 192 200 195 195 199 200 202 203 208 205 209 208 203 195 190 180 175 171 165 171 175 176 187 192 200 197 196 137 205 13 28 19 16 14 13 14 13 10
217 210 206 203 200 197 197 195 196 206 220 224 217 213 212 208 202 199 196 193 184 177 170 164 161 164 175 177 193 212 233 238 218 38 282 344 356 358 1 2 4 5 3
222 217 214 209 205 204 206 211 217 222 217 211 209 210 208 210 209 205 199 194 188 187 182 176 171 157 167 187 171 200 248 270 212 300 330 300 328 338 350 351 355 352 353
233 228 225 221 220 219 219 220 222 217 214 216 222 224 219 214 212 211 205 200 199 194 192 190 187 173 161 185 201 198 270 267 254 295 308 296 313 325 337 339 345 345 344
240 237 235 234 233 230 227 222 219 221 226 229 225 221 220 219 218 216 213 212 209 206 202 201 200 201 188 174 179 197 192 210 251 276 285 291 314 325 327 332 341 339 339
245 241 241 241 241 241 233 228 231 233 234 232 230 227 225 224 223 221 220 220 219 216 212 210 210 209 211 202 204 212 227 241 258 264 275 289 302 311 319 325 329 332 334
241 241 240 237 237 236 237 238 240 241 240 240 239 234 231 228 226 226 227 225 225 223 223 220 220 218 221 225 223 225 238 250 258 259 281 295 295 303 308 316 325 324 327
241 239 237 238 238 237 237 236 237 242 243 241 240 240 235 232 231 230 230 229 229 229 228 229 228 229 230 233 240 246 254 259 268 265 270 285 292 305 311 317 313 320 319